Retour au catalogue

DELTA 1 DEB

ActifUNKNOWN
NORAD 13536·DEBRIS·🇺🇸 United States

Lancé Jul 29, 1976 depuis Vandenberg Space Force Base

Loading…

Prochains Passages (prochaines 24 heures)

TLE

FraisSource: Space-Track

Époque: Sep 12, 2026, 13:40 UTC

1 13536U 76077EJ  26255.57002527 -.00000142  00000-0 -13669-2 0  9999
2 13536 101.7911 156.7053 0420069 262.9395 220.4105 11.75920550 68322

Suivez DELTA 1 DEB en temps réel avec AllMySat

Download on the App Store